Starlink 32802

operational
NORAD ID: 62738 Int'l Des: 2025-014 Owner: SPXS Country: US Constellation: starlink
LEOCIRCULAR

About Starlink 32802

Description loading...

Live Position

Loading 3D Globe...

Upcoming Passes

Altitude History

Altitude vs Time

uPlot chart will show altitude changes over time

Two-Line Element Set

1 62738U 25014D 25302.99689702 .00015388 00000-0 56704-3 0 9990
2 62738 42.9977 172.1229 0001170 282.9968 77.0753 15.27609281 43279
Epoch: Oct 29, 2025 • Age: 32 hours

Current Status

Altitude 483.8 km
Velocity 7.63 km/s
Sub-Earth Point 28.07°N, 151.48°E
Launch Date Jan 21, 2025
Age 0.7 years
Type internet

Technical Details

Classification Payload
Mass 730.00 kg
Dry Mass 700.00 kg
Total Mass 730.00 kg
Length 0.30 m
Diameter 4.10 m
Span 29.00 m
Shape Box + pan
Manufacturer SPXS
Bus Type Starlink V2M
Phase Status In Orbit
Owner/State SPXS/US

Large Constellations

Loading constellations...